Powrót do katalogu

CZ-2C R/B

AktywnySSO
NORAD 31114·ROCKET BODY·🇨🇳 China

Wystrzelony Apr 11, 2007 z Taiyuan Satellite Launch Center

Loading…

Następne Przeloty (najbliższe 24 godziny)

TLE

ŚwieżeSource: Space-Track

Epoka: Sep 14, 2026, 05:56 UTC

1 31114U 07010B   26257.24776670  .00000059  00000-0  45565-4 0  9992
2 31114  98.4146   1.2635 0060095 105.8553 254.9260 14.20294070  6472

Śledź CZ-2C R/B w czasie rzeczywistym z AllMySat

Download on the App Store